Погода в Невском

Россия / Калининградская область     54°44′28″N   20°34′00″E
темп.,
°C
ветер,
м/с
пор.,
м/с
влажн.,
%
обл.,
%
осадки,
мм/ч
давл.,
гПа
погр.,
м
8 августа, пн
пн823:00+12з128579 0.0 102411
02:00+12ю228586 0.0 102411
05:00+12ююз228797 0.0 102418
08:00+16ююз2369100 0.0 1025238
11:00+19зюз345562 0.0 10251112
14:00+21сз444593 0.0 10251553
17:00+19с346079 0.0 1025768
20:00+16ссв337621 0.0 102544
9 августа, вт
вт923:00+13с11885 0.0 102611
02:00+12ююз008917 0.0 102711
05:00+12з11905 0.0 102711
08:00+18ссз23705 0.0 1027487
11:00+22с434840 0.1 10271634
14:00+23с544534 0.3 10271636
17:00+21с55520 0.0 10271197
20:00+17с34750 0.0 102751
10 августа, ср
ср1023:00+14с22840 0.0 102717
02:00+13ссз22860 0.0 102713
05:00+14сз22903 0.0 102716
08:00+19с23655 0.0 1027583
11:00+23ссв324531 0.0 10261771
14:00+24с4441100 0.0 10261642
17:00+22с444687 0.0 1026796
20:00+17ссв3473100 0.0 102568
11 августа, чт
чт1123:00+14св1187100 0.0 102611
02:00+13ю008731 0.0 102611
05:00+12ююв11865 0.0 102611
08:00+19ююв11605 0.0 1026209
11:00+25юв22376 0.0 10251529
14:00+27вюв22296 0.0 10242130
17:00+26с433611 0.0 10231447
20:00+19св356354 0.0 102386
12 августа, пт
пт1223:00+16юв3378100 0.0 102445
02:00+15ююв337790 0.0 102438
05:00+14ю22735 0.0 102422
08:00+21ю34505 0.0 1024250
11:00+27ю32345 0.0 10231547
14:00+30сз112747 0.0 10222121
17:00+26ссв5435100 0.0 1022872
20:00+21всв3452100 0.0 102256